When you browse on this site, cookies collect data to enhance your experience and personalize the content and advertising you see.
Visit our Privacy Policy to learn more. By continuing to use the site, you agree to this use of cookies and data.
  • In Deutschland
  • Länderverzeichnis
  • Für 7 Tage
  • Wassertemperatur
  • Wetterkarte
  • Widgets
  • user-avatar
    Anmelden

    Stündliche Wetter Djelfa

    Heute, 20 August, Dienstag

    Zeit Temperatur Niederschläge Wind Luftdruck Luftfeuchtigkeit
    00:00 +28°C° 0 mm 1 m/S 666 mmHg 34%
    01:00 +27°C° 0 mm 1 m/S 666 mmHg 34%
    02:00 +27°C° 0 mm 1 m/S 665 mmHg 35%
    03:00 +26°C° 0 mm 1 m/S 665 mmHg 36%
    04:00 +27°C° 0 mm 1 m/S 665 mmHg 35%
    05:00 +25°C° 0 mm 0 m/S 666 mmHg 35%
    06:00 +25°C° 0 mm 0 m/S 666 mmHg 34%
    07:00 +29°C° 0 mm 1 m/S 667 mmHg 29%
    08:00 +31°C° 0 mm 1 m/S 667 mmHg 24%
    09:00 +35°C° 0 mm 2 m/S 668 mmHg 18%
    10:00 +36°C° 0 mm 3 m/S 668 mmHg 17%
    11:00 +37°C° 0 mm 4 m/S 668 mmHg 16%
    12:00 +39°C° 0 mm 5 m/S 668 mmHg 16%
    13:00 +39°C° 0 mm 6 m/S 668 mmHg 15%
    14:00 +39°C° 0 mm 6 m/S 668 mmHg 15%
    15:00 +39°C° 0 mm 7 m/S 668 mmHg 15%
    16:00 +36°C° 0 mm 6 m/S 667 mmHg 18%
    17:00 +35°C° 0 mm 6 m/S 667 mmHg 21%
    18:00 +33°C° 0 mm 5 m/S 667 mmHg 25%
    19:00 +32°C° 0 mm 4 m/S 667 mmHg 26%
    20:00 +31°C° 0 mm 3 m/S 668 mmHg 28%
    21:00 +30°C° 0 mm 2 m/S 668 mmHg 30%
    22:00 +29°C° 0 mm 2 m/S 668 mmHg 31%
    23:00 +29°C° 0 mm 1 m/S 667 mmHg 32%

    Morgen, 21 August, Mittwoch

    Zeit Temperatur Niederschläge Wind Luftdruck Luftfeuchtigkeit
    00:00 +28°C° 0 mm 1 m/S 667 mmHg 33%
    01:00 +28°C° 0 mm 1 m/S 667 mmHg 34%
    02:00 +27°C° 0 mm 1 m/S 667 mmHg 35%
    03:00 +26°C° 0 mm 1 m/S 666 mmHg 36%
    04:00 +26°C° 0 mm 1 m/S 667 mmHg 37%
    05:00 +26°C° 0 mm 1 m/S 667 mmHg 37%
    06:00 +26°C° 0 mm 1 m/S 667 mmHg 38%
    07:00 +28°C° 0 mm 2 m/S 668 mmHg 33%
    08:00 +30°C° 0 mm 3 m/S 668 mmHg 28%
    09:00 +33°C° 0 mm 4 m/S 669 mmHg 24%
    10:00 +34°C° 0 mm 4 m/S 669 mmHg 22%
    11:00 +36°C° 0 mm 5 m/S 669 mmHg 20%
    12:00 +37°C° 0 mm 5 m/S 669 mmHg 18%
    13:00 +37°C° 0 mm 5 m/S 668 mmHg 17%
    14:00 +37°C° 0 mm 5 m/S 668 mmHg 16%
    15:00 +39°C° 0 mm 6 m/S 667 mmHg 15%
    16:00 +37°C° 0 mm 5 m/S 667 mmHg 16%
    17:00 +36°C° 0 mm 5 m/S 667 mmHg 18%
    18:00 +36°C° 0 mm 4 m/S 667 mmHg 19%
    19:00 +34°C° 0 mm 3 m/S 667 mmHg 22%
    20:00 +33°C° 0 mm 3 m/S 667 mmHg 25%
    21:00 +31°C° 0 mm 2 m/S 667 mmHg 28%
    22:00 +30°C° 0 mm 2 m/S 667 mmHg 29%
    23:00 +30°C° 0 mm 2 m/S 667 mmHg 31%

    übermorgen, 22 August, Donnerstag

    Zeit Temperatur Niederschläge Wind Luftdruck Luftfeuchtigkeit
    00:00 +29°C° 0 mm 2 m/S 667 mmHg 32%
    01:00 +28°C° 0 mm 2 m/S 667 mmHg 38%
    02:00 +27°C° 0 mm 1 m/S 666 mmHg 43%
    03:00 +26°C° 0 mm 1 m/S 666 mmHg 49%
    04:00 +25°C° 0 mm 1 m/S 666 mmHg 53%
    05:00 +25°C° 0 mm 1 m/S 666 mmHg 57%
    06:00 +25°C° 0 mm 1 m/S 667 mmHg 61%
    07:00 +26°C° 0 mm 1 m/S 667 mmHg 55%
    08:00 +27°C° 0 mm 1 m/S 668 mmHg 49%
    09:00 +29°C° 0 mm 2 m/S 668 mmHg 43%
    10:00 +30°C° 0 mm 2 m/S 668 mmHg 38%
    11:00 +33°C° 0 mm 3 m/S 668 mmHg 34%
    12:00 +34°C° 0 mm 4 m/S 669 mmHg 29%
    13:00 +35°C° 0 mm 5 m/S 668 mmHg 27%
    14:00 +35°C° 0 mm 5 m/S 668 mmHg 25%
    15:00 +36°C° 0 mm 6 m/S 667 mmHg 24%
    16:00 +35°C° 0 mm 6 m/S 667 mmHg 26%
    17:00 +34°C° 0 mm 6 m/S 667 mmHg 28%
    18:00 +33°C° 0 mm 6 m/S 667 mmHg 30%
    19:00 +32°C° 0.2 mm 5 m/S 668 mmHg 35%
    20:00 +29°C° 0.2 mm 4 m/S 668 mmHg 40%
    21:00 +27°C° 0.2 mm 3 m/S 668 mmHg 45%
    22:00 +27°C° 0 mm 2 m/S 668 mmHg 46%
    23:00 +26°C° 0 mm 2 m/S 667 mmHg 46%

    23 August, Freitag

    Zeit Temperatur Niederschläge Wind Luftdruck Luftfeuchtigkeit
    00:00 +26°C° 0 mm 1 m/S 667 mmHg 46%
    01:00 +26°C° 0.1 mm 1 m/S 667 mmHg 48%
    02:00 +23°C° 0.1 mm 0 m/S 667 mmHg 49%
    03:00 +23°C° 0.1 mm 0 m/S 666 mmHg 51%
    04:00 +25°C° 0 mm 1 m/S 667 mmHg 50%
    05:00 +25°C° 0 mm 1 m/S 667 mmHg 50%
    06:00 +25°C° 0 mm 1 m/S 667 mmHg 49%
    07:00 +27°C° 0 mm 2 m/S 667 mmHg 44%
    08:00 +28°C° 0 mm 3 m/S 668 mmHg 40%
    09:00 +29°C° 0 mm 4 m/S 668 mmHg 35%
    10:00 +32°C° 0 mm 4 m/S 668 mmHg 32%
    11:00 +33°C° 0 mm 4 m/S 668 mmHg 29%
    12:00 +34°C° 0 mm 4 m/S 668 mmHg 26%
    13:00 +35°C° 0 mm 5 m/S 668 mmHg 24%
    14:00 +36°C° 0 mm 5 m/S 668 mmHg 22%
    15:00 +36°C° 0 mm 6 m/S 667 mmHg 20%
    16:00 +36°C° 0 mm 6 m/S 667 mmHg 22%
    17:00 +35°C° 0 mm 6 m/S 667 mmHg 24%
    18:00 +34°C° 0 mm 6 m/S 666 mmHg 26%
    19:00 +33°C° 0 mm 5 m/S 667 mmHg 29%
    20:00 +30°C° 0 mm 5 m/S 667 mmHg 33%
    21:00 +29°C° 0 mm 5 m/S 667 mmHg 36%
    22:00 +28°C° 0 mm 5 m/S 667 mmHg 37%
    23:00 +28°C° 0 mm 5 m/S 666 mmHg 37%

    24 August, Samstag

    Zeit Temperatur Niederschläge Wind Luftdruck Luftfeuchtigkeit
    00:00 +27°C° 0 mm 6 m/S 666 mmHg 38%
    01:00 +26°C° 0 mm 4 m/S 666 mmHg 41%
    02:00 +26°C° 0 mm 3 m/S 665 mmHg 44%
    03:00 +25°C° 0 mm 2 m/S 665 mmHg 47%
    04:00 +24°C° 0 mm 2 m/S 665 mmHg 50%
    05:00 +24°C° 0 mm 2 m/S 665 mmHg 54%
    06:00 +23°C° 0 mm 2 m/S 665 mmHg 57%
    07:00 +25°C° 0 mm 2 m/S 666 mmHg 52%
    08:00 +26°C° 0 mm 3 m/S 667 mmHg 47%
    09:00 +27°C° 0 mm 3 m/S 667 mmHg 43%
    10:00 +29°C° 0 mm 3 m/S 667 mmHg 37%
    11:00 +30°C° 0 mm 3 m/S 667 mmHg 31%
    12:00 +32°C° 0 mm 4 m/S 667 mmHg 26%
    13:00 +33°C° 0 mm 4 m/S 667 mmHg 23%
    14:00 +33°C° 0 mm 4 m/S 667 mmHg 20%
    15:00 +34°C° 0 mm 5 m/S 667 mmHg 17%
    16:00 +33°C° 0 mm 5 m/S 666 mmHg 16%
    17:00 +33°C° 0 mm 5 m/S 666 mmHg 16%
    18:00 +32°C° 0 mm 5 m/S 666 mmHg 16%
    19:00 +30°C° 0 mm 4 m/S 666 mmHg 26%
    20:00 +28°C° 0 mm 3 m/S 666 mmHg 35%
    21:00 +27°C° 0 mm 2 m/S 667 mmHg 44%
    22:00 +26°C° 0 mm 2 m/S 666 mmHg 49%
    23:00 +25°C° 0 mm 1 m/S 666 mmHg 55%

    25 August, Sonntag

    Zeit Temperatur Niederschläge Wind Luftdruck Luftfeuchtigkeit
    00:00 +24°C° 0 mm 1 m/S 666 mmHg 60%
    01:00 +24°C° 0 mm 1 m/S 666 mmHg 62%
    02:00 +21°C° 0 mm 0 m/S 665 mmHg 64%
    03:00 +21°C° 0 mm 0 m/S 665 mmHg 67%
    04:00 +23°C° 0 mm 1 m/S 665 mmHg 63%
    05:00 +23°C° 0 mm 1 m/S 666 mmHg 59%
    06:00 +23°C° 0 mm 1 m/S 666 mmHg 56%
    07:00 +25°C° 0 mm 1 m/S 666 mmHg 48%
    08:00 +27°C° 0 mm 2 m/S 667 mmHg 41%
    09:00 +29°C° 0 mm 3 m/S 667 mmHg 33%
    10:00 +30°C° 0 mm 3 m/S 667 mmHg 29%
    11:00 +31°C° 0 mm 3 m/S 667 mmHg 25%
    12:00 +34°C° 0 mm 4 m/S 667 mmHg 21%
    13:00 +34°C° 0 mm 4 m/S 667 mmHg 19%
    14:00 +35°C° 0 mm 4 m/S 667 mmHg 16%
    15:00 +36°C° 0 mm 4 m/S 667 mmHg 14%
    16:00 +35°C° 0 mm 3 m/S 666 mmHg 14%
    17:00 +34°C° 0 mm 3 m/S 666 mmHg 15%
    18:00 +34°C° 0 mm 2 m/S 666 mmHg 15%
    19:00 +31°C° 0 mm 2 m/S 666 mmHg 18%
    20:00 +30°C° 0 mm 2 m/S 666 mmHg 21%
    21:00 +29°C° 0 mm 2 m/S 667 mmHg 24%
    22:00 +28°C° 0 mm 2 m/S 667 mmHg 26%
    23:00 +27°C° 0 mm 2 m/S 666 mmHg 29%
    Mehr zeigen